Regional Weather Roundup
Issued by NWS

Home | Current Version | Previous Version | Text Only | Print | Product List | Glossary Off
Versions: 1 2 3 4 5 6 7 8 9 10 11 12 13 14 15 16 17 18 19 20 21 22 23 24 25 26 27 28 29 30 31 32 33 34 35 36 37 38 39 40 41 42 43 44 45 46 47 48 49 50

000
ASUS45 KBOI 272210
RWRID

IDAHO REGIONAL WEATHER ROUNDUP
NATIONAL WEATHER SERVICE BOISE ID
400 PM MDT THU APR 27 2017

NOTE: "FAIR" INDICATES FEW OR NO CLOUDS BELOW 12000 FEET
WITH NO SIGNIFICANT WEATHER AND/OR OBSTRUCTIONS TO VISIBILITY

IDZ012-014-272300-
SOUTHWEST IDAHO


CITY           SKY/WX    TMP DP  RH WIND       PRES   REMARKS
BOISE          CLOUDY    49  25  39 NW16G25   29.94S
CALDWELL       MOSUNNY   52  25  35 W21       29.95F
MOUNTAIN HOME  MOSUNNY   50  23  34 NW26G36   29.93F
$$

IDZ016-017-272300-
SOUTHCENTRAL IDAHO


CITY           SKY/WX    TMP DP  RH WIND       PRES   REMARKS
BURLEY         LGT RAIN  47  24  40 W25G40    29.83S
JEROME         SUNNY     47  21  35 W31G44    29.86S
TWIN FALLS     MOSUNNY   46  27  47 W28G38    29.88F
$$

IDZ019>023-272300-
SOUTHEAST IDAHO


CITY           SKY/WX    TMP DP  RH WIND       PRES   REMARKS
IDAHO FALLS    LGT RAIN  43  36  76 SW22G33   29.75S
POCATELLO      CLOUDY    37  34  89 E9        29.80F WCI  30
REXBURG        LGT RAIN  39  35  86 SW10      29.73R WCI  32
$$

IDZ006-010-011-018-031-032-272300-
CENTRAL IDAHO MOUNTAINS


CITY           SKY/WX    TMP DP  RH WIND       PRES   REMARKS
MCCALL         LGT SNOW  32  25  75 SW7       29.88R WCI  26
HAILEY         MOSUNNY   48  19  32 W16G23    29.74S
STANLEY          N/A     30  24  78 NW14G23   29.83R WCI  19
SALMON         PTSUNNY   46  23  39 N16G22    29.77F
CHALLIS        CLOUDY    45  25  45 NE13G20   29.76R
$$

IDZ002-004-006-007-026-272300-
NORTHERN IDAHO


CITY           SKY/WX    TMP DP  RH WIND       PRES   REMARKS
LEWISTON       LGT RAIN  50  35  56 NW9G21    29.94R
LOWELL           N/A     44  39  82 S3        29.98F
COEUR D`ALENE  PTSUNNY   44  38  79 S8        29.90F
MULLAN PASS    FLURRIES  29  27  92 VRB3      29.82R
$$



USA.gov is the U.S. government's official web portal to all federal, state and local government web resources and services.